GOES 17

Last updated on Nov. 13, 2019, 4:20 a.m. UTC

1 43226U 18022A   19316.51509142  .00000111  00000-0  00000+0 0  9999
2 43226   0.0035  13.9318 0000624 234.6328 211.0430  1.00272813  6283
UTC
Height (km)
Latitude
Longitude
Inclination
Orbital Period
UTC large
Height (km)
Speed (km/s)
/
Latitude / Longitude
Inclination (degrees)
Orbital Period (minutes)
Azimuth
Elevation
Range (km)
Doppler Factor
iOS Compass Heading
iOS Angle

Next 30 passes for location: Hong Kong

Rise time Rise Azimuth (degrees) Set time Set Azimuth (degrees) Duration Max altitude (degrees)

No matching passes for this satellites